Regional Weather Roundup
Issued by NWS

Home | Current Version | Previous Version | Graphics & Text | Print | Product List | Glossary On
Versions: 1 2 3 4 5 6 7 8 9 10 11 12 13 14 15 16 17 18 19 20 21 22 23 24 25 26 27 28 29 30 31 32 33 34 35 36 37 38 39 40 41 42 43 44 45 46 47 48 49 50
000
ASUS44 KMEG 090100
RWRTN
TENNESSEE HOURLY STATE WEATHER ROUNDUP
NATIONAL WEATHER SERVICE MEMPHIS TN
700 PM CST THU DEC 08 2016

TNZ002-004-019-021-049-052-054-088>092-090200-
WEST TENNESSEE

CITY           SKY/WX    TMP DP  RH WIND       PRES   REMARKS
MEMPHIS INTL   PTCLDY    32  17  54 N3        30.55R
NWS MEMPHIS      N/A     30 N/A N/A MISG        N/A
JACKSON        PTCLDY    30  18  60 NW5       30.54R WCI  25
DYERSBURG      PTCLDY    28  19  69 CALM      30.54R
UNION CITY     CLEAR     27  16  63 CALM      30.52R
PARIS          CLEAR     25  12  58 CALM      30.50S
$$

TNZ008-025-027-028-033-062-065-066-090200-
NORTH MIDDLE TENNESSEE

CITY           SKY/WX    TMP DP  RH WIND       PRES   REMARKS
NASHVILLE      MOCLDY    31  14  49 NW6       30.48R WCI  25
CLARKSVILLE    CLEAR     28  14  55 NW8       30.48R WCI  20
SMYRNA         MOCLDY    30  17  58 NW8       30.49R WCI  22
CROSSVILLE     CLOUDY    28  14  55 NW5       30.36R WCI  23
$$

TNZ061-075-076-078-094-096-097-090200-
SOUTH MIDDLE TENNESSEE

CITY           SKY/WX    TMP DP  RH WIND       PRES   REMARKS
TULLAHOMA      CLEAR     28  12  50 N8        30.42R WCI  20
WINCHESTER     CLEAR     32  18  55 N7        30.41S WCI  26
SHELBYVILLE    CLEAR     30  19  64 N3        30.45R
$$

TNZ017-018-042-046-047-090200-
NORTHEAST TENNESSEE

CITY           SKY/WX    TMP DP  RH WIND       PRES   REMARKS
TRI CITIES     PTCLDY    34  15  46 W8        30.28R WCI  27
$$

TNZ012-013-036-069-073-074-090200-
CENTRAL EAST TENNESSEE

CITY           SKY/WX    TMP DP  RH WIND       PRES   REMARKS
KNOXVILLE      MOCLDY    36  15  42 W8        30.34R WCI  30
OAK RIDGE      PTCLDY    36  15  42 W6        30.38R WCI  31
GATLINBURG     CLEAR     34  16  47 W5        30.34R WCI  30
$$

TNZ083-085-099-090200-
SOUTHEAST TENNESSEE

CITY           SKY/WX    TMP DP  RH WIND       PRES   REMARKS
CHATTANOOGA    PTCLDY    36  16  44 NW7       30.40R WCI  30
$$

SKY/WX REPORTED AS FAIR MEANS FEW OR NO CLOUDS BELOW
12 THOUSAND FEET.




USA.gov is the U.S. government's official web portal to all federal, state and local government web resources and services.